Retour au catalogue

AVUM R/B

ActifMEO
NORAD 53109·ROCKET BODY·🇫🇷 France

Lancé Jul 13, 2022 depuis Guiana Space Centre

Loading…

Prochains Passages (prochaines 24 heures)

TLE

FraisSource: Space-Track

Époque: Sep 14, 2026, 01:15 UTC

1 53109U 22080E   26257.05265458 -.00000003  00000-0  00000-0 0  9991
2 53109  70.1212 267.3355 0009219 270.3545  89.6058  6.42583783 97773

Suivez AVUM R/B en temps réel avec AllMySat

Download on the App Store